EDT,Max TemperatureF,Mean TemperatureF,Min TemperatureF,Max Dew PointF,MeanDew PointF,Min DewpointF,Max Humidity, Mean Humidity, Min Humidity, Max Sea Level PressureIn, Mean Sea Level PressureIn, Min Sea Level PressureIn, Max VisibilityMiles, Mean VisibilityMiles, Min VisibilityMiles, Max Wind SpeedMPH, Mean Wind SpeedMPH, Max Gust SpeedMPH,PrecipitationIn, CloudCover, Events, WindDirDegrees
2013-4-1,86,74,63,64,59,54,84,64,40,30.04,29.99,29.93,10,10,10,24,7,31,0.00,2,Thunderstorm,237
2013-4-2,82,71,61,62,55,43,97,65,27,30.11,30.06,30.01,10,9,4,14,7,18,0.00,0,,5
2013-4-3,82,71,60,68,61,55,96,76,45,30.10,30.05,30.00,10,9,5,20,5,21,0.16,4,Rain-Thunderstorm,111
2013-4-4,75,70,66,70,66,62,100,87,73,30.03,29.97,29.86,10,9,6,20,6,33,0.02,6,Rain,200
2013-4-5,78,67,57,66,61,54,94,82,60,30.02,29.89,29.82,10,9,3,20,9,24,0.03,6,Rain,295
2013-4-6,75,64,54,58,54,51,90,74,50,30.16,30.08,30.00,10,10,10,15,10,23,0.00,4,,11
2013-4-7,80,68,57,61,57,53,97,71,40,30.19,30.13,30.07,10,10,7,14,6,17,0.00,3,,79
2013-4-8,82,69,57,64,59,56,96,73,46,30.16,30.12,30.09,10,10,5,15,3,21,0.00,1,,112
2013-4-9,84,73,64,66,61,52,97,71,40,30.19,30.14,30.10,10,10,10,17,6,24,0.00,1,,112
2013-4-10,84,72,60,70,64,59,96,79,51,30.14,30.07,30.01,10,10,10,15,6,,0.00,2,,123
2013-4-11,90,78,69,70,69,66,100,81,49,30.02,29.95,29.84,10,10,8,18,9,25,0.00,6,,152
2013-4-12,86,78,73,72,70,66,94,78,55,29.92,29.88,29.83,10,10,10,18,11,32,0.00,4,Rain,191
2013-4-13,86,74,64,70,64,54,93,73,44,30.01,29.94,29.89,10,10,8,13,4,,0.00,2,Rain,7
2013-4-14,84,73,64,73,68,59,100,85,65,30.01,29.93,29.84,10,7,0,23,8,30,2.29,7,Fog-Rain-Thunderstorm,108
2013-4-15,88,77,66,64,63,60,90,69,44,30.10,30.00,29.93,10,10,10,15,5,,0.00,1,,89
2013-4-16,84,75,66,69,66,64,100,82,54,30.17,30.12,30.08,10,8,1,15,6,20,0.00,4,,48
2013-4-17,84,75,66,68,65,62,100,83,47,30.17,30.12,30.08,10,9,4,14,6,22,0.00,4,,29
2013-4-18,87,76,66,70,65,61,97,74,43,30.07,30.03,29.98,10,10,5,15,5,,0.00,2,,137
2013-4-19,91,81,71,72,70,64,97,77,41,30.04,29.99,29.91,10,10,1,21,10,26,0.37,5,Rain,183
2013-4-20,73,66,59,70,60,55,91,82,68,30.18,30.07,29.97,10,10,10,18,9,32,0.00,7,,16
2013-4-21,79,70,62,70,66,57,100,86,65,30.15,30.10,30.05,10,10,4,14,9,,0.11,8,Rain,30
2013-4-22,77,70,64,68,65,62,100,89,67,30.10,30.06,30.01,10,9,5,17,7,25,0.06,8,Rain,2
2013-4-23,79,70,62,64,61,56,96,78,46,30.14,30.09,30.03,10,10,8,17,9,22,0.00,3,,21
2013-4-24,82,70,57,62,60,57,97,72,45,30.17,30.13,30.09,10,10,8,14,5,18,0.00,0,,102
2013-4-25,87,74,62,64,61,56,93,66,36,30.22,30.17,30.12,10,10,9,15,4,,0.00,1,Rain,121
2013-4-26,86,75,64,66,63,61,90,70,43,30.27,30.21,30.17,10,10,10,16,4,23,0.00,1,,40
2013-4-27,84,73,64,67,63,59,96,74,45,30.24,30.19,30.14,10,10,8,18,5,21,0.00,2,Rain,74
2013-4-28,81,72,64,66,63,61,97,76,52,30.15,30.09,30.03,10,10,10,17,6,,0.00,4,,107
2013-4-29,86,75,66,70,64,57,96,78,40,30.05,29.99,29.92,10,8,1,20,7,29,1.50,4,Rain-Thunderstorm,161
2013-4-30,84,75,66,69,66,63,100,84,49,30.05,29.99,29.94,10,8,2,16,4,,0.24,4,Rain-Thunderstorm,180